Погода в Державино

Россия / Республика Татарстан     55°33′02″N   49°33′50″E
темп.,
°C
ветер,
м/с
пор.,
м/с
влажн.,
%
обл.,
%
осадки,
мм/ч
давл.,
гПа
погр.,
м
7 мая, пт
пт700:00+9ю4986100 0.0 1015159
03:00+9ю4885100 0.0 1015123
06:00+10ю51277100 0.0 1015283
09:00+14ю61263100 0.0 1015487
12:00+16ю71154100 0.0 10151295
15:00+16ю71153100 0.0 10141478
18:00+14ю6146289 0.0 1013429
21:00+12юз41179100 0.2 1015365
8 мая, сб
сб800:00+10з3493100 0.1 1015156
03:00+9с3694100 1.0 1016262
06:00+9ссв4693100 0.8 1017281
09:00+10всв3388100 0.9 1017280
12:00+13вюв237527 0.1 1016437
15:00+16ююв46605 0.2 10151115
18:00+15юв24727 0.0 1014101
21:00+11юв338221 0.0 101446
9 мая, вс
вс900:00+10юв410834 0.0 1013168
03:00+9юв4883100 0.0 1013142
06:00+11ююв488299 0.0 1013197
09:00+16ююв576648 0.0 1013417
12:00+19ю5751100 0.0 10131193
15:00+16ююз2467100 0.0 1014119
18:00+17в1167100 0.0 101411
21:00+15в4568100 0.0 101471
10 мая, пн
пн1000:00+13сз2272100 0.0 101640
03:00+13св3477100 0.1 101765
06:00+14в2472100 0.1 1018113
09:00+18з1161100 0.1 1020428
12:00+21ссз3255100 0.0 1021828
15:00+21с5558100 0.0 10221063
18:00+16с7107899 0.1 1024469
21:00+12с6128763 0.1 1026386
11 мая, вт
вт1100:00+10ссв510895 0.0 1026354
03:00+9ссв6118414 0.0 1028392
06:00+10ссв69785 0.0 1029438
09:00+14ссв566422 0.0 1029742
12:00+17ссв55515 0.0 10291023
15:00+18ссв56411 0.0 10281252
18:00+16ссв36523 0.0 1029148
21:00+11ссв45575 0.0 102961